User: anonymous   Login
Location: Caltech
(34.1382°N, 118.1253°W)
Time: 12:52:44
(UTC-07:00)
Language:

Iridium 68 - Orbit

View from above orbital plane
View from above orbital plane
View from above satellite
View from above satellite

Ground track
Ground track

The orbit data is extracted from the following two-line orbital elements,

1 25291U 98021G   18157.51998795  .15483272 -14506-5  27879-3 0  9994
2 25291  86.3397  73.4850 0055354  87.3193 274.3240 16.40310493 56113
Epoch (UTC): 06 June 2018 12:28:46
Eccentricity: 0.0055354
inclination: 86.3397°
perigee height: 129 km
apogee height: 201 km
right ascension of ascending node: 73.4850°
argument of perigee: 87.3193°
revolutions per day: 16.40310493
mean anomaly at epoch: 274.3240°
orbit number at epoch: 5611

The dashed part of the orbit path shows where the satellite is in the earth's shadow,  

DLR